Location: Altamira
(10.5079°N, 66.8544°W)
Time: 09:16:32
(UTC+00:00)

OAO 3 Rocket - Visible Passes

Search period start: 26 June 2022 00:00
Search period end: 06 July 2022 00:00
Orbit: 628 x 681 km, 35.0° (Epoch: 25 June)

Date Brightness Start Highest point End Pass type
(mag) Time Alt. Az. Time Alt. Az. Time Alt. Az.
05 Jul 4.9 00:33:17 10° SSW 00:34:56 20° SSW 00:34:56 20° SSW visible
05 Jul 6.0 09:18:09 10° N 09:21:11 16° NNE 09:24:13 10° ENE visible
05 Jul 4.8 23:19:41 10° S 23:22:30 16° SE 23:25:20 10° ESE visible
